Year,Month,Day,Hour,Minute,Value (Times are PST for temperature in C)
2021,06,07,00,00,6.60
2021,06,07,00,01,6.60
2021,06,07,00,02,6.60
2021,06,07,00,03,6.60
2021,06,07,00,04,6.60
2021,06,07,00,05,6.60
2021,06,07,00,06,6.60
2021,06,07,00,07,6.60
2021,06,07,00,08,6.60
2021,06,07,00,09,6.60
2021,06,07,00,10,6.70
2021,06,07,00,11,6.70
2021,06,07,00,12,6.70
2021,06,07,00,13,6.60
2021,06,07,00,14,6.60
2021,06,07,00,15,6.60
2021,06,07,00,16,6.60
2021,06,07,00,17,6.60
2021,06,07,00,18,6.60
2021,06,07,00,19,6.50
2021,06,07,00,20,6.50
2021,06,07,00,21,6.50
2021,06,07,00,22,6.40
2021,06,07,00,23,6.40
2021,06,07,00,24,6.40
2021,06,07,00,25,6.40
2021,06,07,00,26,6.40
2021,06,07,00,27,6.40
2021,06,07,00,28,6.30
2021,06,07,00,29,6.30
2021,06,07,00,30,6.30
2021,06,07,00,31,6.30
2021,06,07,00,32,6.30
2021,06,07,00,33,6.30
2021,06,07,00,34,6.30
2021,06,07,00,35,6.30
2021,06,07,00,36,6.20
2021,06,07,00,37,6.20
2021,06,07,00,38,6.20
2021,06,07,00,39,6.20
2021,06,07,00,40,6.20
2021,06,07,00,41,6.20
2021,06,07,00,42,6.20
2021,06,07,00,43,6.20
2021,06,07,00,44,6.20
2021,06,07,00,45,6.20
2021,06,07,00,46,6.20
2021,06,07,00,47,6.20
2021,06,07,00,48,6.20
2021,06,07,00,49,6.20
2021,06,07,00,50,6.20
2021,06,07,00,51,6.20
2021,06,07,00,52,6.20
2021,06,07,00,53,6.20
2021,06,07,00,54,6.20
2021,06,07,00,55,6.20
2021,06,07,00,56,6.10
2021,06,07,00,57,6.10
2021,06,07,00,58,6.10
2021,06,07,00,59,6.10
2021,06,07,01,00,6.10
2021,06,07,01,01,6.00
2021,06,07,01,02,6.00
2021,06,07,01,03,6.00
2021,06,07,01,04,5.90
2021,06,07,01,05,5.90
2021,06,07,01,06,5.90
2021,06,07,01,07,5.80
2021,06,07,01,08,5.80
2021,06,07,01,09,5.80
2021,06,07,01,10,5.80
2021,06,07,01,11,5.70
2021,06,07,01,12,5.70
2021,06,07,01,13,5.70
2021,06,07,01,14,5.70
2021,06,07,01,15,5.60
2021,06,07,01,16,5.60
2021,06,07,01,17,5.60
2021,06,07,01,18,5.60
2021,06,07,01,19,5.50
2021,06,07,01,20,5.50
2021,06,07,01,21,5.50
2021,06,07,01,22,5.40
2021,06,07,01,23,5.40
2021,06,07,01,24,5.40
2021,06,07,01,25,5.40
2021,06,07,01,26,5.40
2021,06,07,01,27,5.30
2021,06,07,01,28,5.30
2021,06,07,01,29,5.30
2021,06,07,01,30,5.30
2021,06,07,01,31,5.30
2021,06,07,01,32,5.20
2021,06,07,01,33,5.20
2021,06,07,01,34,5.20
2021,06,07,01,35,5.20
2021,06,07,01,36,5.20
2021,06,07,01,37,5.10
2021,06,07,01,38,5.10
2021,06,07,01,39,5.10
2021,06,07,01,40,5.10
2021,06,07,01,41,5.10
2021,06,07,01,42,5.10
2021,06,07,01,43,5.10
2021,06,07,01,44,5.00
2021,06,07,01,45,5.00
2021,06,07,01,46,5.00
2021,06,07,01,47,5.00
2021,06,07,01,48,5.00
2021,06,07,01,49,5.00
2021,06,07,01,50,5.00
2021,06,07,01,51,5.00
2021,06,07,01,52,5.00
2021,06,07,01,53,4.90
2021,06,07,01,54,4.90
2021,06,07,01,55,4.90
2021,06,07,01,56,4.90
2021,06,07,01,57,4.90
2021,06,07,01,58,4.90
2021,06,07,01,59,4.90
2021,06,07,02,00,4.90
2021,06,07,02,01,4.90
2021,06,07,02,02,4.90
2021,06,07,02,03,4.90
2021,06,07,02,04,4.90
2021,06,07,02,05,4.90
2021,06,07,02,06,4.80
2021,06,07,02,07,4.80
2021,06,07,02,08,4.80
2021,06,07,02,09,4.80
2021,06,07,02,10,4.80
2021,06,07,02,11,4.80
2021,06,07,02,12,4.80
2021,06,07,02,13,4.80
2021,06,07,02,14,4.80
2021,06,07,02,15,4.80
2021,06,07,02,16,4.80
2021,06,07,02,17,4.80
2021,06,07,02,18,4.80
2021,06,07,02,19,4.70
2021,06,07,02,20,4.70
2021,06,07,02,21,4.70
2021,06,07,02,22,4.70
2021,06,07,02,23,4.70
2021,06,07,02,24,4.70
2021,06,07,02,25,4.70
2021,06,07,02,26,4.70
2021,06,07,02,27,4.70
2021,06,07,02,28,4.60
2021,06,07,02,29,4.60
2021,06,07,02,30,4.60
2021,06,07,02,31,4.60
2021,06,07,02,32,4.60
2021,06,07,02,33,4.60
2021,06,07,02,34,4.60
2021,06,07,02,35,4.50
2021,06,07,02,36,4.50
2021,06,07,02,37,4.50
2021,06,07,02,38,4.50
2021,06,07,02,39,4.50
2021,06,07,02,40,4.40
2021,06,07,02,41,4.40
2021,06,07,02,42,4.40
2021,06,07,02,43,4.40
2021,06,07,02,44,4.40
2021,06,07,02,45,4.30
2021,06,07,02,46,4.30
2021,06,07,02,47,4.30
2021,06,07,02,48,4.30
2021,06,07,02,49,4.30
2021,06,07,02,50,4.30
2021,06,07,02,51,4.30
2021,06,07,02,52,4.20
2021,06,07,02,53,4.20
2021,06,07,02,54,4.20
2021,06,07,02,55,4.20
2021,06,07,02,56,4.20
2021,06,07,02,57,4.20
2021,06,07,02,58,4.20
2021,06,07,02,59,4.20
2021,06,07,03,00,4.20
2021,06,07,03,01,4.10
2021,06,07,03,02,4.10
2021,06,07,03,03,4.10
2021,06,07,03,04,4.10
2021,06,07,03,05,4.10
2021,06,07,03,06,4.10
2021,06,07,03,07,4.00
2021,06,07,03,08,4.00
2021,06,07,03,09,4.00
2021,06,07,03,10,4.00
2021,06,07,03,11,4.00
2021,06,07,03,12,3.90
2021,06,07,03,13,3.90
2021,06,07,03,14,3.90
2021,06,07,03,15,3.90
2021,06,07,03,16,3.90
2021,06,07,03,17,3.90
2021,06,07,03,18,3.80
2021,06,07,03,19,3.80
2021,06,07,03,20,3.80
2021,06,07,03,21,3.80
2021,06,07,03,22,3.80
2021,06,07,03,23,3.80
2021,06,07,03,24,3.70
2021,06,07,03,25,3.70
2021,06,07,03,26,3.70
2021,06,07,03,27,3.70
2021,06,07,03,28,3.70
2021,06,07,03,29,3.70
2021,06,07,03,30,3.70
2021,06,07,03,31,3.70
2021,06,07,03,32,3.70
2021,06,07,03,33,3.70
2021,06,07,03,34,3.60
2021,06,07,03,35,3.60
2021,06,07,03,36,3.60
2021,06,07,03,37,3.60
2021,06,07,03,38,3.60
2021,06,07,03,39,3.60
2021,06,07,03,40,3.60
2021,06,07,03,41,3.60
2021,06,07,03,42,3.60
2021,06,07,03,43,3.60
2021,06,07,03,44,3.50
2021,06,07,03,45,3.50
2021,06,07,03,46,3.50
2021,06,07,03,47,3.40
2021,06,07,03,48,3.40
2021,06,07,03,49,3.40
2021,06,07,03,50,3.40
2021,06,07,03,51,3.40
2021,06,07,03,52,3.40
2021,06,07,03,53,3.30
2021,06,07,03,54,3.30
2021,06,07,03,55,3.30
2021,06,07,03,56,3.30
2021,06,07,03,57,3.30
2021,06,07,03,58,3.30
2021,06,07,03,59,3.30
2021,06,07,04,00,3.30
2021,06,07,04,01,3.30
2021,06,07,04,02,3.30
2021,06,07,04,03,3.30
2021,06,07,04,04,3.30
2021,06,07,04,05,3.30
2021,06,07,04,06,3.30
2021,06,07,04,07,3.30
2021,06,07,04,08,3.30
2021,06,07,04,09,3.30
2021,06,07,04,10,3.30
2021,06,07,04,11,3.30
2021,06,07,04,12,3.30
2021,06,07,04,13,3.30
2021,06,07,04,14,3.20
2021,06,07,04,15,3.20
2021,06,07,04,16,3.20
2021,06,07,04,17,3.20
2021,06,07,04,18,3.20
2021,06,07,04,19,3.20
2021,06,07,04,20,3.20
2021,06,07,04,21,3.20
2021,06,07,04,22,3.20
2021,06,07,04,23,3.20
2021,06,07,04,24,3.20
2021,06,07,04,25,3.30
2021,06,07,04,26,3.30
2021,06,07,04,27,3.30
2021,06,07,04,28,3.30
2021,06,07,04,29,3.30
2021,06,07,04,30,3.30
2021,06,07,04,31,3.30
2021,06,07,04,32,3.30
2021,06,07,04,33,3.30
2021,06,07,04,34,3.30
2021,06,07,04,35,3.30
2021,06,07,04,36,3.30
2021,06,07,04,37,3.30
2021,06,07,04,38,3.30
2021,06,07,04,39,3.30
2021,06,07,04,40,3.30
2021,06,07,04,41,3.30
2021,06,07,04,42,3.30
2021,06,07,04,43,3.30
2021,06,07,04,44,3.30
2021,06,07,04,45,3.30
2021,06,07,04,46,3.30
2021,06,07,04,47,3.30
2021,06,07,04,48,3.30
2021,06,07,04,49,3.30
2021,06,07,04,50,3.30
2021,06,07,04,51,3.30
2021,06,07,04,52,3.30
2021,06,07,04,53,3.30
2021,06,07,04,54,3.30
2021,06,07,04,55,3.20
2021,06,07,04,56,3.20
2021,06,07,04,57,3.20
2021,06,07,04,58,3.20
2021,06,07,04,59,3.20
2021,06,07,05,00,3.20
2021,06,07,05,01,3.20
2021,06,07,05,02,3.20
2021,06,07,05,03,3.20
2021,06,07,05,04,3.20
2021,06,07,05,05,3.20
2021,06,07,05,06,3.20
2021,06,07,05,07,3.20
2021,06,07,05,08,3.20
2021,06,07,05,09,3.20
2021,06,07,05,10,3.20
2021,06,07,05,11,3.20
2021,06,07,05,12,3.10
2021,06,07,05,13,3.10
2021,06,07,05,14,3.10
2021,06,07,05,15,3.10
2021,06,07,05,16,3.10
2021,06,07,05,17,3.10
2021,06,07,05,18,3.10
2021,06,07,05,19,3.10
2021,06,07,05,20,3.10
2021,06,07,05,21,3.10
2021,06,07,05,22,3.10
2021,06,07,05,23,3.10
2021,06,07,05,24,3.10
2021,06,07,05,25,3.10
2021,06,07,05,26,3.10
2021,06,07,05,27,3.10
2021,06,07,05,28,3.10
2021,06,07,05,29,3.00
2021,06,07,05,30,3.00
2021,06,07,05,31,3.00
2021,06,07,05,32,3.00
2021,06,07,05,33,2.90
2021,06,07,05,34,2.90
2021,06,07,05,35,2.90
2021,06,07,05,36,2.90
2021,06,07,05,37,2.90
2021,06,07,05,38,2.90
2021,06,07,05,39,2.90
2021,06,07,05,40,2.90
2021,06,07,05,41,2.90
2021,06,07,05,42,2.90
2021,06,07,05,43,2.90
2021,06,07,05,44,2.90
2021,06,07,05,45,2.80
2021,06,07,05,46,2.80
2021,06,07,05,47,2.80
2021,06,07,05,48,2.80
2021,06,07,05,49,2.80
2021,06,07,05,50,2.80
2021,06,07,05,51,2.80
2021,06,07,05,52,2.80
2021,06,07,05,53,2.80
2021,06,07,05,54,2.80
2021,06,07,05,55,2.80
2021,06,07,05,56,2.80
2021,06,07,05,57,2.80
2021,06,07,05,58,2.80
2021,06,07,05,59,2.80
2021,06,07,06,00,2.80
2021,06,07,06,01,2.80
2021,06,07,06,02,2.80
2021,06,07,06,03,2.80
2021,06,07,06,04,2.80
2021,06,07,06,05,2.80
2021,06,07,06,06,2.80
2021,06,07,06,07,2.80
2021,06,07,06,08,2.80
2021,06,07,06,09,2.80
2021,06,07,06,10,2.80
2021,06,07,06,11,2.80
2021,06,07,06,12,2.80
2021,06,07,06,13,2.80
2021,06,07,06,14,2.80
2021,06,07,06,15,2.80
2021,06,07,06,16,2.80
2021,06,07,06,17,2.80
2021,06,07,06,18,2.80
2021,06,07,06,19,2.80
2021,06,07,06,20,2.80
2021,06,07,06,21,2.80
2021,06,07,06,22,2.80
2021,06,07,06,23,2.90
2021,06,07,06,24,2.90
2021,06,07,06,25,2.90
2021,06,07,06,26,2.90
2021,06,07,06,27,2.90
2021,06,07,06,28,2.90
2021,06,07,06,29,2.90
2021,06,07,06,30,2.90
2021,06,07,06,31,2.90
2021,06,07,06,32,2.90
2021,06,07,06,33,2.90
2021,06,07,06,34,2.90
2021,06,07,06,35,3.00
2021,06,07,06,36,3.00
2021,06,07,06,37,3.00
2021,06,07,06,38,3.00
2021,06,07,06,39,3.00
2021,06,07,06,40,3.00
2021,06,07,06,41,3.10
2021,06,07,06,42,3.10
2021,06,07,06,43,3.10
2021,06,07,06,44,3.10
2021,06,07,06,45,3.10
2021,06,07,06,46,3.10
2021,06,07,06,47,3.20
2021,06,07,06,48,3.20
2021,06,07,06,49,3.20
2021,06,07,06,50,3.20
2021,06,07,06,51,3.30
2021,06,07,06,52,3.30
2021,06,07,06,53,3.30
2021,06,07,06,54,3.40
2021,06,07,06,55,3.40
2021,06,07,06,56,3.40
2021,06,07,06,57,3.40
2021,06,07,06,58,3.50
2021,06,07,06,59,3.50
2021,06,07,07,00,3.60
2021,06,07,07,01,3.60
2021,06,07,07,02,3.60
2021,06,07,07,03,3.70
2021,06,07,07,04,3.70
2021,06,07,07,05,3.80
2021,06,07,07,06,3.80
2021,06,07,07,07,3.90
2021,06,07,07,08,3.90
2021,06,07,07,09,4.00
2021,06,07,07,10,4.00
2021,06,07,07,11,4.10
2021,06,07,07,12,4.10
2021,06,07,07,13,4.20
2021,06,07,07,14,4.30
2021,06,07,07,15,4.30
2021,06,07,07,16,4.40
2021,06,07,07,17,4.50
2021,06,07,07,18,4.60
2021,06,07,07,19,4.80
2021,06,07,07,20,5.00
2021,06,07,07,21,5.10
2021,06,07,07,22,5.30
2021,06,07,07,23,5.40
2021,06,07,07,24,5.50
2021,06,07,07,25,5.70
2021,06,07,07,26,5.70
2021,06,07,07,27,5.80
2021,06,07,07,28,5.90
2021,06,07,07,29,5.90
2021,06,07,07,30,6.00
2021,06,07,07,31,6.10
2021,06,07,07,32,6.20
2021,06,07,07,33,6.30
2021,06,07,07,34,6.40
2021,06,07,07,35,6.50
2021,06,07,07,36,6.50
2021,06,07,07,37,6.60
2021,06,07,07,38,6.70
2021,06,07,07,39,6.70
2021,06,07,07,40,6.80
2021,06,07,07,41,6.90
2021,06,07,07,42,6.90
2021,06,07,07,43,7.00
2021,06,07,07,44,7.10
2021,06,07,07,45,7.20
2021,06,07,07,46,7.20
2021,06,07,07,47,7.30
2021,06,07,07,48,7.40
2021,06,07,07,49,7.40
2021,06,07,07,50,7.50
2021,06,07,07,51,7.60
2021,06,07,07,52,7.60
2021,06,07,07,53,7.70
2021,06,07,07,54,7.80
2021,06,07,07,55,7.90
2021,06,07,07,56,8.00
2021,06,07,07,57,8.00
2021,06,07,07,58,8.10
2021,06,07,07,59,8.10
2021,06,07,08,00,8.20
2021,06,07,08,01,8.30
2021,06,07,08,02,8.30
2021,06,07,08,03,8.40
2021,06,07,08,04,8.50
2021,06,07,08,05,8.60
2021,06,07,08,06,8.60
2021,06,07,08,07,8.60
2021,06,07,08,08,8.70
2021,06,07,08,09,8.70
2021,06,07,08,10,8.80
2021,06,07,08,11,8.90
2021,06,07,08,12,9.00
2021,06,07,08,13,9.10
2021,06,07,08,14,9.10
2021,06,07,08,15,9.30
2021,06,07,08,16,9.30
2021,06,07,08,17,9.30
2021,06,07,08,18,9.30
2021,06,07,08,19,9.30
2021,06,07,08,20,9.40
2021,06,07,08,21,9.40
2021,06,07,08,22,9.40
2021,06,07,08,23,9.40
2021,06,07,08,24,9.50
2021,06,07,08,25,9.50
2021,06,07,08,26,9.60
2021,06,07,08,27,9.60
2021,06,07,08,28,9.60
2021,06,07,08,29,9.60
2021,06,07,08,30,9.60
2021,06,07,08,31,9.60
2021,06,07,08,32,9.70
2021,06,07,08,33,9.70
2021,06,07,08,34,9.70
2021,06,07,08,35,9.80
2021,06,07,08,36,9.80
2021,06,07,08,37,9.90
2021,06,07,08,38,10.00
2021,06,07,08,39,10.10
2021,06,07,08,40,10.10
2021,06,07,08,41,10.20
2021,06,07,08,42,10.20
2021,06,07,08,43,10.20
2021,06,07,08,44,10.20
2021,06,07,08,45,10.30
2021,06,07,08,46,10.30
2021,06,07,08,47,10.30
2021,06,07,08,48,10.40
2021,06,07,08,49,10.40
2021,06,07,08,50,10.50
2021,06,07,08,51,10.50
2021,06,07,08,52,10.60
2021,06,07,08,53,10.60
2021,06,07,08,54,10.60
2021,06,07,08,55,10.60
2021,06,07,08,56,10.60
2021,06,07,08,57,10.50
2021,06,07,08,58,10.50
2021,06,07,08,59,10.50
2021,06,07,09,00,10.60
2021,06,07,09,01,10.60
2021,06,07,09,02,10.60
2021,06,07,09,03,10.60
2021,06,07,09,04,10.60
2021,06,07,09,05,10.60
2021,06,07,09,06,10.70
2021,06,07,09,07,10.70
2021,06,07,09,08,10.70
2021,06,07,09,09,10.60
2021,06,07,09,10,10.60
2021,06,07,09,11,10.60
2021,06,07,09,12,10.60
2021,06,07,09,13,10.60
2021,06,07,09,14,10.60
2021,06,07,09,15,10.70
2021,06,07,09,16,10.70
2021,06,07,09,17,10.70
2021,06,07,09,18,10.70
2021,06,07,09,19,10.80
2021,06,07,09,20,10.80
2021,06,07,09,21,10.80
2021,06,07,09,22,10.70
2021,06,07,09,23,10.70
2021,06,07,09,24,10.70
2021,06,07,09,25,10.80
2021,06,07,09,26,10.90
2021,06,07,09,27,10.90
2021,06,07,09,28,10.80
2021,06,07,09,29,10.90
2021,06,07,09,30,10.90
2021,06,07,09,31,11.00
2021,06,07,09,32,11.00
2021,06,07,09,33,11.10
2021,06,07,09,34,11.10
2021,06,07,09,35,11.10
2021,06,07,09,36,11.10
2021,06,07,09,37,11.10
2021,06,07,09,38,11.10
2021,06,07,09,39,11.10
2021,06,07,09,40,11.10
2021,06,07,09,41,11.10
2021,06,07,09,42,11.10
2021,06,07,09,43,11.10
2021,06,07,09,44,11.10
2021,06,07,09,45,11.00
2021,06,07,09,46,10.90
2021,06,07,09,47,10.90
2021,06,07,09,48,10.80
2021,06,07,09,49,10.80
2021,06,07,09,50,10.80
2021,06,07,09,51,10.80
2021,06,07,09,52,10.80
2021,06,07,09,53,10.80
2021,06,07,09,54,10.80
2021,06,07,09,55,10.80
2021,06,07,09,56,10.70
2021,06,07,09,57,10.70
2021,06,07,09,58,10.70
2021,06,07,09,59,10.70
2021,06,07,10,00,10.70
2021,06,07,10,01,10.60
2021,06,07,10,02,10.60
2021,06,07,10,03,10.60
2021,06,07,10,04,10.60
2021,06,07,10,05,10.50
2021,06,07,10,06,10.50
2021,06,07,10,07,10.50
2021,06,07,10,08,10.60
2021,06,07,10,09,10.60
2021,06,07,10,10,10.60
2021,06,07,10,11,10.60
2021,06,07,10,12,10.60
2021,06,07,10,13,10.60
2021,06,07,10,14,10.70
2021,06,07,10,15,10.70
2021,06,07,10,16,10.70
2021,06,07,10,17,10.80
2021,06,07,10,18,10.80
2021,06,07,10,19,10.80
2021,06,07,10,20,10.80
2021,06,07,10,21,10.70
2021,06,07,10,22,10.70
2021,06,07,10,23,10.70
2021,06,07,10,24,10.70
2021,06,07,10,25,10.70
2021,06,07,10,26,10.70
2021,06,07,10,27,10.70
2021,06,07,10,28,10.70
2021,06,07,10,29,10.70
2021,06,07,10,30,10.70
2021,06,07,10,31,10.60
2021,06,07,10,32,10.60
2021,06,07,10,33,10.60
2021,06,07,10,34,10.50
2021,06,07,10,35,10.50
2021,06,07,10,36,10.40
2021,06,07,10,37,10.40
2021,06,07,10,38,10.40
2021,06,07,10,39,10.40
2021,06,07,10,40,10.40
2021,06,07,10,41,10.40
2021,06,07,10,42,10.40
2021,06,07,10,43,10.40
2021,06,07,10,44,10.40
2021,06,07,10,45,10.40
2021,06,07,10,46,10.40
2021,06,07,10,47,10.40
2021,06,07,10,48,10.40
2021,06,07,10,49,10.40
2021,06,07,10,50,10.40
2021,06,07,10,51,10.40
2021,06,07,10,52,10.40
2021,06,07,10,53,10.40
2021,06,07,10,54,10.30
2021,06,07,10,55,10.30
2021,06,07,10,56,10.30
2021,06,07,10,57,10.30
2021,06,07,10,58,10.30
2021,06,07,10,59,10.30
2021,06,07,11,00,10.30
2021,06,07,11,01,10.30
2021,06,07,11,02,10.30
2021,06,07,11,03,10.30
2021,06,07,11,04,10.30
2021,06,07,11,05,10.30
2021,06,07,11,06,10.30
2021,06,07,11,07,10.30
2021,06,07,11,08,10.30
2021,06,07,11,09,10.30
2021,06,07,11,10,10.30
2021,06,07,11,11,10.30
2021,06,07,11,12,10.40
2021,06,07,11,13,10.40
2021,06,07,11,14,10.40
2021,06,07,11,15,10.40
2021,06,07,11,16,10.50
2021,06,07,11,17,10.50
2021,06,07,11,18,10.50
2021,06,07,11,19,10.50
2021,06,07,11,20,10.60
2021,06,07,11,21,10.60
2021,06,07,11,22,10.60
2021,06,07,11,23,10.60
2021,06,07,11,24,10.70
2021,06,07,11,25,10.70
2021,06,07,11,26,10.70
2021,06,07,11,27,10.70
2021,06,07,11,28,10.70
2021,06,07,11,29,10.70
2021,06,07,11,30,10.70
2021,06,07,11,31,10.60
2021,06,07,11,32,10.60
2021,06,07,11,33,10.60
2021,06,07,11,34,10.60
2021,06,07,11,35,10.50
2021,06,07,11,36,10.40
2021,06,07,11,37,10.40
2021,06,07,11,38,10.30
2021,06,07,11,39,10.30
2021,06,07,11,40,10.30
2021,06,07,11,41,10.20
2021,06,07,11,42,10.20
2021,06,07,11,43,10.20
2021,06,07,11,44,10.20
2021,06,07,11,45,10.20
2021,06,07,11,46,10.20
2021,06,07,11,47,10.10
2021,06,07,11,48,10.10
2021,06,07,11,49,10.10
2021,06,07,11,50,10.10
2021,06,07,11,51,10.10
2021,06,07,11,52,10.10
2021,06,07,11,53,10.10
2021,06,07,11,54,10.10
2021,06,07,11,55,10.20
2021,06,07,11,56,10.20
2021,06,07,11,57,10.20
2021,06,07,11,58,10.20
2021,06,07,11,59,10.30
2021,06,07,12,00,10.30
2021,06,07,12,01,10.30
2021,06,07,12,02,10.30
2021,06,07,12,03,10.30
2021,06,07,12,04,10.30
2021,06,07,12,05,10.40
2021,06,07,12,06,10.40
2021,06,07,12,07,10.50
2021,06,07,12,08,10.70
2021,06,07,12,09,10.80
2021,06,07,12,10,10.90
2021,06,07,12,11,11.00
2021,06,07,12,12,11.10
2021,06,07,12,13,11.20
2021,06,07,12,14,11.30
2021,06,07,12,15,11.40
2021,06,07,12,16,11.40
2021,06,07,12,17,11.50
2021,06,07,12,18,11.50
2021,06,07,12,19,11.50
2021,06,07,12,20,11.50
2021,06,07,12,21,11.50
2021,06,07,12,22,11.60
2021,06,07,12,23,11.70
2021,06,07,12,24,11.80
2021,06,07,12,25,11.90
2021,06,07,12,26,12.00
2021,06,07,12,27,12.10
2021,06,07,12,28,12.20
2021,06,07,12,29,12.20
2021,06,07,12,30,12.30
2021,06,07,12,31,12.30
2021,06,07,12,32,12.30
2021,06,07,12,33,12.40
2021,06,07,12,34,12.30
2021,06,07,12,35,12.30
2021,06,07,12,36,12.30
2021,06,07,12,37,12.20
2021,06,07,12,38,12.20
2021,06,07,12,39,12.20
2021,06,07,12,40,12.10
2021,06,07,12,41,12.00
2021,06,07,12,42,12.00
2021,06,07,12,43,11.90
2021,06,07,12,44,11.90
2021,06,07,12,45,11.90
2021,06,07,12,46,11.80
2021,06,07,12,47,11.80
2021,06,07,12,48,11.80
2021,06,07,12,49,11.70
2021,06,07,12,50,11.70
2021,06,07,12,51,11.60
2021,06,07,12,52,11.60
2021,06,07,12,53,11.60
2021,06,07,12,54,11.50
2021,06,07,12,55,11.50
2021,06,07,12,56,11.50
2021,06,07,12,57,11.50
2021,06,07,12,58,11.40
2021,06,07,12,59,11.40
2021,06,07,13,00,11.30
2021,06,07,13,01,11.30
2021,06,07,13,02,11.30
2021,06,07,13,03,11.30
2021,06,07,13,04,11.20
2021,06,07,13,05,11.20
2021,06,07,13,06,11.20
2021,06,07,13,07,11.20
2021,06,07,13,08,11.20
2021,06,07,13,09,11.20
2021,06,07,13,10,11.20
2021,06,07,13,11,11.10
2021,06,07,13,12,11.10
2021,06,07,13,13,11.10
2021,06,07,13,14,11.10
2021,06,07,13,15,11.00
2021,06,07,13,16,10.90
2021,06,07,13,17,10.90
2021,06,07,13,18,10.80
2021,06,07,13,19,10.80
2021,06,07,13,20,10.80
2021,06,07,13,21,10.70
2021,06,07,13,22,10.70
2021,06,07,13,23,10.70
2021,06,07,13,24,10.60
2021,06,07,13,25,10.60
2021,06,07,13,26,10.50
2021,06,07,13,27,10.50
2021,06,07,13,28,10.40
2021,06,07,13,29,10.40
2021,06,07,13,30,10.40
2021,06,07,13,31,10.30
2021,06,07,13,32,10.30
2021,06,07,13,33,10.30
2021,06,07,13,34,10.20
2021,06,07,13,35,10.20
2021,06,07,13,36,10.10
2021,06,07,13,37,10.10
2021,06,07,13,38,10.10
2021,06,07,13,39,10.10
2021,06,07,13,40,10.10
2021,06,07,13,41,10.00
2021,06,07,13,42,10.00
2021,06,07,13,43,10.00
2021,06,07,13,44,10.00
2021,06,07,13,45,10.00
2021,06,07,13,46,9.90
2021,06,07,13,47,9.90
2021,06,07,13,48,9.90
2021,06,07,13,49,9.90
2021,06,07,13,50,9.90
2021,06,07,13,51,9.90
2021,06,07,13,52,9.90
2021,06,07,13,53,9.80
2021,06,07,13,54,9.80
2021,06,07,13,55,9.80
2021,06,07,13,56,9.80
2021,06,07,13,57,9.70
2021,06,07,13,58,9.70
2021,06,07,13,59,9.80
2021,06,07,14,00,9.80
2021,06,07,14,01,9.80
2021,06,07,14,02,9.80
2021,06,07,14,03,9.80
2021,06,07,14,04,9.80
2021,06,07,14,05,9.80
2021,06,07,14,06,9.90
2021,06,07,14,07,9.90
2021,06,07,14,08,9.90
2021,06,07,14,09,10.00
2021,06,07,14,10,10.10
2021,06,07,14,11,10.10
2021,06,07,14,12,10.20
2021,06,07,14,13,10.20
2021,06,07,14,14,10.20
2021,06,07,14,15,10.20
2021,06,07,14,16,10.30
2021,06,07,14,17,10.30
2021,06,07,14,18,10.40
2021,06,07,14,19,10.40
2021,06,07,14,20,10.50
2021,06,07,14,21,10.50
2021,06,07,14,22,10.60
2021,06,07,14,23,10.60
2021,06,07,14,24,10.70
2021,06,07,14,25,10.70
2021,06,07,14,26,10.70
2021,06,07,14,27,10.80
2021,06,07,14,28,10.80
2021,06,07,14,29,10.90
2021,06,07,14,30,10.90
2021,06,07,14,31,11.00
2021,06,07,14,32,11.00
2021,06,07,14,33,11.10
2021,06,07,14,34,11.10
2021,06,07,14,35,11.10
2021,06,07,14,36,11.20
2021,06,07,14,37,11.30
2021,06,07,14,38,11.30
2021,06,07,14,39,11.40
2021,06,07,14,40,11.40
2021,06,07,14,41,11.50
2021,06,07,14,42,11.60
2021,06,07,14,43,11.60
2021,06,07,14,44,11.70
2021,06,07,14,45,11.70
2021,06,07,14,46,11.70
2021,06,07,14,47,11.80
2021,06,07,14,48,11.80
2021,06,07,14,49,11.80
2021,06,07,14,50,11.90
2021,06,07,14,51,12.00
2021,06,07,14,52,12.00
2021,06,07,14,53,12.00
2021,06,07,14,54,12.00
2021,06,07,14,55,12.10
2021,06,07,14,56,12.10
2021,06,07,14,57,12.20
2021,06,07,14,58,12.20
2021,06,07,14,59,12.20
2021,06,07,15,00,12.20
2021,06,07,15,01,12.20
2021,06,07,15,02,12.20
2021,06,07,15,03,12.20
2021,06,07,15,04,12.20
2021,06,07,15,05,12.20
2021,06,07,15,06,12.20
2021,06,07,15,07,12.20
2021,06,07,15,08,12.20
2021,06,07,15,09,12.20
2021,06,07,15,10,12.20
2021,06,07,15,11,12.20
2021,06,07,15,12,12.20
2021,06,07,15,13,12.20
2021,06,07,15,14,12.10
2021,06,07,15,15,12.20
2021,06,07,15,16,12.20
2021,06,07,15,17,12.30
2021,06,07,15,18,12.30
2021,06,07,15,19,12.40
2021,06,07,15,20,12.40
2021,06,07,15,21,12.50
2021,06,07,15,22,12.50
2021,06,07,15,23,12.60
2021,06,07,15,24,12.60
2021,06,07,15,25,12.70
2021,06,07,15,26,12.70
2021,06,07,15,27,12.80
2021,06,07,15,28,12.80
2021,06,07,15,29,12.90
2021,06,07,15,30,12.90
2021,06,07,15,31,13.00
2021,06,07,15,32,13.00
2021,06,07,15,33,13.00
2021,06,07,15,34,13.10
2021,06,07,15,35,13.10
2021,06,07,15,36,13.10
2021,06,07,15,37,13.10
2021,06,07,15,38,13.00
2021,06,07,15,39,13.10
2021,06,07,15,40,13.10
2021,06,07,15,41,13.00
2021,06,07,15,42,13.00
2021,06,07,15,43,13.00
2021,06,07,15,44,13.10
2021,06,07,15,45,13.10
2021,06,07,15,46,13.10
2021,06,07,15,47,13.10
2021,06,07,15,48,13.20
2021,06,07,15,49,13.20
2021,06,07,15,50,13.10
2021,06,07,15,51,13.10
2021,06,07,15,52,13.10
2021,06,07,15,53,13.10
2021,06,07,15,54,13.10
2021,06,07,15,55,13.10
2021,06,07,15,56,13.10
2021,06,07,15,57,13.10
2021,06,07,15,58,13.10
2021,06,07,15,59,13.10
2021,06,07,16,00,13.10
2021,06,07,16,01,13.20
2021,06,07,16,02,13.20
2021,06,07,16,03,13.20
2021,06,07,16,04,13.20
2021,06,07,16,05,13.30
2021,06,07,16,06,13.30
2021,06,07,16,07,13.30
2021,06,07,16,08,13.30
2021,06,07,16,09,13.40
2021,06,07,16,10,13.40
2021,06,07,16,11,13.40
2021,06,07,16,12,13.40
2021,06,07,16,13,13.40
2021,06,07,16,14,13.40
2021,06,07,16,15,13.40
2021,06,07,16,16,13.40
2021,06,07,16,17,13.30
2021,06,07,16,18,13.30
2021,06,07,16,19,13.20
2021,06,07,16,20,13.20
2021,06,07,16,21,13.10
2021,06,07,16,22,13.00
2021,06,07,16,23,12.90
2021,06,07,16,24,12.90
2021,06,07,16,25,12.80
2021,06,07,16,26,12.80
2021,06,07,16,27,12.90
2021,06,07,16,28,12.90
2021,06,07,16,29,13.00
2021,06,07,16,30,13.00
2021,06,07,16,31,13.00
2021,06,07,16,32,13.10
2021,06,07,16,33,13.10
2021,06,07,16,34,13.10
2021,06,07,16,35,13.10
2021,06,07,16,36,13.10
2021,06,07,16,37,13.20
2021,06,07,16,38,13.20
2021,06,07,16,39,13.10
2021,06,07,16,40,13.20
2021,06,07,16,41,13.10
2021,06,07,16,42,13.10
2021,06,07,16,43,13.10
2021,06,07,16,44,13.10
2021,06,07,16,45,13.10
2021,06,07,16,46,13.20
2021,06,07,16,47,13.20
2021,06,07,16,48,13.20
2021,06,07,16,49,13.20
2021,06,07,16,50,13.20
2021,06,07,16,51,13.20
2021,06,07,16,52,13.20
2021,06,07,16,53,13.10
2021,06,07,16,54,13.10
2021,06,07,16,55,13.10
2021,06,07,16,56,13.10
2021,06,07,16,57,13.20
2021,06,07,16,58,13.20
2021,06,07,16,59,13.20
2021,06,07,17,00,13.20
2021,06,07,17,01,13.10
2021,06,07,17,02,13.10
2021,06,07,17,03,13.10
2021,06,07,17,04,13.10
2021,06,07,17,05,13.10
2021,06,07,17,06,13.10
2021,06,07,17,07,13.10
2021,06,07,17,08,13.10
2021,06,07,17,09,13.10
2021,06,07,17,10,13.10
2021,06,07,17,11,13.20
2021,06,07,17,12,13.20
2021,06,07,17,13,13.20
2021,06,07,17,14,13.20
2021,06,07,17,15,13.20
2021,06,07,17,16,13.20
2021,06,07,17,17,13.20
2021,06,07,17,18,13.20
2021,06,07,17,19,13.20
2021,06,07,17,20,13.20
2021,06,07,17,21,13.20
2021,06,07,17,22,13.20
2021,06,07,17,23,13.20
2021,06,07,17,24,13.20
2021,06,07,17,25,13.20
2021,06,07,17,26,13.20
2021,06,07,17,27,13.20
2021,06,07,17,28,13.20
2021,06,07,17,29,13.20
2021,06,07,17,30,13.20
2021,06,07,17,31,13.20
2021,06,07,17,32,13.20
2021,06,07,17,33,13.10
2021,06,07,17,34,13.10
2021,06,07,17,35,13.10
2021,06,07,17,36,13.10
2021,06,07,17,37,13.10
2021,06,07,17,38,13.00
2021,06,07,17,39,13.00
2021,06,07,17,40,12.90
2021,06,07,17,41,12.90
2021,06,07,17,42,12.90